User: anonymous   Login
Location: Unspecified
(0.0000°N, 0.0000°E)
Time: 05:22:51
(UTC+00:00)
Language:

DNEPR OBJECT AD - Orbit

View from above orbital plane
View from above orbital plane
View from above satellite
View from above satellite

Ground track
Ground track

The orbit data is extracted from the following two-line orbital elements,

1 39443U 13066AD  19083.70700266  .00000980  00000-0  93618-4 0  9996
2 39443  97.5735 140.3674 0023562 211.8804 148.0993 14.95301363289398
Epoch (UTC): 24 March 2019 16:58:05
Eccentricity: 0.0023562
inclination: 97.5735°
perigee height: 565 km
apogee height: 598 km
right ascension of ascending node: 140.3674°
argument of perigee: 211.8804°
revolutions per day: 14.95301363
mean anomaly at epoch: 148.0993°
orbit number at epoch: 28939

The dashed part of the orbit path shows where the satellite is in the earth's shadow,  

DLR